Location: Avebury
(53.1487°N, 106.9774°W)
Time: 13:51:11
(UTC+00:00)

Envisat - Pass Details

Date: 19 January 2022
Orbit: 764 x 765 km, 98.2° (Epoch: 22 May)

Event Time Altitude Azimuth Distance (km) Brightness Sun altitude
Rises 11:56:16 0° 17° (NNE) 3,244 6.5 -28.4°
Reaches altitude 10° 11:58:37 10° 21° (NNE) 2,313 5.7 -28.0°
Maximum altitude 12:03:40 60° 101° (ESE) 873 3.4 -27.3°
Drops below altitude 10° 12:08:40 10° 182° (S) 2,297 5.4 -26.5°
Sets 12:11:00 0° 186° (S) 3,219 6.2 -26.2°
